Weather reports worldwide

Advertisment
Toledo, Spain (8272): temperature & dewpoint: 03.12.2019 22:00:00 - 09.12.2019 22:00:00 (CET)Toledo, Spain (8272): wind speed: 03.12.2019 22:00:00 - 09.12.2019 22:00:00 (CET)Toledo, Spain (8272): wind direction: 03.12.2019 22:00:00 - 09.12.2019 22:00:00 (CET)Toledo, Spain (8272): reduced air pressure: 03.12.2019 22:00:00 - 09.12.2019 22:00:00 (CET)Toledo, Spain (8272): visibility: 03.12.2019 22:00:00 - 09.12.2019 22:00:00 (CET)Toledo, Spain (8272): precipitation: 03.12.2019 22:00:00 - 09.12.2019 22:00:00 (CET)
Date & Time tt [°C] td [°C] ff [km/h] ff [kn] dd ppp [hPa] vv [km] rr [mm]
09.12.2019 22:00:00 - - - - - - - -
09.12.2019 21:00:00 8,5 7,9 9 5 W 1031,4 20 0,0
09.12.2019 20:00:00 8,7 8,1 11 6 W 1030,8 20 0,0
09.12.2019 19:00:00 9,1 8,3 15 8 W 1030,2 20 -
09.12.2019 18:00:00 9,1 8,6 9 5 W 1029,7 20 0,0
09.12.2019 17:00:00 9,6 8,5 13 7 W 1029,5 20 0,0
09.12.2019 16:00:00 11,2 8,8 15 8 WNW 1028,8 20 -
09.12.2019 15:00:00 10,8 8,6 15 8 W 1029,0 20 0,0
09.12.2019 14:00:00 10,0 8,3 21 11 W 1029,2 20 0,0
09.12.2019 13:00:00 11,1 8,8 15 8 W 1030,0 20 -
09.12.2019 12:00:00 10,2 8,5 11 6 W 1031,1 20 0,0
09.12.2019 11:00:00 8,8 8,3 4 2 S 1031,5 9 0,0
09.12.2019 10:00:00 7,9 7,9 8 4 E 1031,3 3,0 -
09.12.2019 09:00:00 8,1 8,1 9 5 ESE 1030,3 6 0,0
09.12.2019 08:00:00 8,4 8,4 8 4 NE 1029,6 5 0,0
09.12.2019 07:00:00 8,3 8,3 0 0 N 1028,9 2,3 -
09.12.2019 06:00:00 8,7 8,7 4 2 NNE 1028,6 0,2 0,0
09.12.2019 05:00:00 8,7 8,7 5 3 W 1028,5 0,2 0,0
09.12.2019 04:00:00 8,7 8,7 5 3 WNW 1028,8 0,3 -
09.12.2019 03:00:00 8,8 8,8 8 4 WNW 1028,5 0,7 0,0
09.12.2019 02:00:00 8,8 8,8 15 8 W 1027,7 2,7 0,0
09.12.2019 01:00:00 8,5 8,5 13 7 WNW 1028,1 2,5 -
09.12.2019 00:00:00 8,5 8,5 8 4 W 1028,0 7 0,0
08.12.2019 23:00:00 8,1 8,0 8 4 WNW 1027,9 7 0,0
08.12.2019 22:00:00 8,1 7,8 5 3 NNW 1027,9 9 -
08.12.2019 21:00:00 7,7 7,6 8 4 W 1027,2 7 0,0
08.12.2019 20:00:00 7,8 7,5 8 4 WNW 1027,2 9 0,0
08.12.2019 19:00:00 8,0 7,9 5 3 W 1026,5 3,6 -
08.12.2019 18:00:00 8,2 7,8 5 3 NW 1026,3 9 0,6
08.12.2019 17:00:00 8,1 7,3 4 2 WSW 1026,0 8 0,0
08.12.2019 16:00:00 8,2 7,1 5 3 SSW 1026,7 13 -
08.12.2019 15:00:00 7,5 6,6 4 2 E 1026,4 10 0,0
08.12.2019 14:00:00 6,8 6,4 8 4 SE 1026,7 9 0,0
08.12.2019 13:00:00 6,0 5,7 8 4 S 1027,4 8 -
08.12.2019 12:00:00 5,2 5,2 5 3 E 1028,0 0,9 0,0
08.12.2019 11:00:00 3,7 3,7 5 3 SSE 1028,9 0,3 0,0
08.12.2019 10:00:00 2,7 2,7 8 4 E 1028,5 0,2 -
08.12.2019 09:00:00 2,4 2,4 8 4 E 1028,4 0,2 0,0
08.12.2019 08:00:00 2,4 2,4 8 4 E 1028,2 0,2 0,0
08.12.2019 07:00:00 1,4 1,4 4 2 ENE 1028,0 3,4 -
08.12.2019 06:00:00 2,4 2,4 4 2 ESE 1027,3 0,1 0,0
08.12.2019 05:00:00 2,4 2,4 5 3 ESE 1027,4 0,1 0,0
08.12.2019 04:00:00 2,6 2,6 2 1 S 1027,6 0,1 -
08.12.2019 03:00:00 2,9 2,9 4 2 E 1027,7 0,2 0,0
08.12.2019 02:00:00 4,1 3,8 4 2 S 1027,9 0,3 0,0
08.12.2019 01:00:00 5,5 4,9 2 1 SSE 1027,3 4,7 -
08.12.2019 00:00:00 5,8 5,4 2 1 S 1027,2 - 0,0
07.12.2019 23:00:00 6,0 5,7 2 1 E 1027,2 8 0,0
07.12.2019 22:00:00 6,2 5,2 4 2 SW 1026,7 - -
07.12.2019 21:00:00 6,7 5,8 4 2 NE 1026,1 8 0,0
07.12.2019 20:00:00 8,3 6,4 4 2 ENE 1025,5 20 0,0
07.12.2019 19:00:00 8,6 6,7 2 1 S 1025,0 17 -
07.12.2019 18:00:00 9,9 6,4 4 2 ENE 1024,5 20 0,0
07.12.2019 17:00:00 11,8 7,3 5 3 E 1023,7 20 0,0
07.12.2019 16:00:00 10,9 7,8 8 4 ESE 1023,8 14 -
07.12.2019 15:00:00 10,8 7,7 9 5 SE 1023,7 20 0,0
07.12.2019 14:00:00 8,2 7,0 8 4 E 1025,0 14 0,0
07.12.2019 13:00:00 6,3 5,9 9 5 SE 1026,3 2,0 -
07.12.2019 12:00:00 5,9 5,9 8 4 SE 1026,9 1,8 0,0
07.12.2019 11:00:00 4,5 4,5 8 4 ESE 1027,3 0,3 0,0
07.12.2019 10:00:00 3,9 3,9 9 5 E 1027,2 0,2 -
07.12.2019 09:00:00 3,2 3,1 8 4 ESE 1026,8 0,3 0,0
07.12.2019 08:00:00 4,3 3,6 5 3 S 1026,0 3,6 0,0
07.12.2019 07:00:00 4,9 4,8 9 5 ESE 1025,4 19 -
07.12.2019 06:00:00 3,8 3,8 8 4 E 1026,0 7 0,0
07.12.2019 05:00:00 3,8 3,5 5 3 SSE 1025,8 9 0,0
07.12.2019 04:00:00 4,3 3,9 4 2 S 1025,7 3,9 -
07.12.2019 03:00:00 4,9 4,3 4 2 S 1025,1 7 0,0
07.12.2019 02:00:00 5,4 4,8 4 2 ENE 1025,1 13 0,0
07.12.2019 01:00:00 6,3 5,4 8 4 SSE 1025,3 17 -
07.12.2019 00:00:00 6,4 5,5 5 3 E 1025,4 20 0,0
06.12.2019 23:00:00 7,6 6,1 4 2 SSE 1024,5 20 0,0
06.12.2019 22:00:00 7,7 5,7 5 3 S 1024,2 20 -
06.12.2019 21:00:00 8,3 5,8 5 3 SSE 1023,8 20 0,0
06.12.2019 20:00:00 9,1 6,0 8 4 E 1023,3 20 0,0
06.12.2019 19:00:00 9,8 6,3 8 4 E 1022,8 20 -
06.12.2019 18:00:00 11,7 6,8 11 6 ESE 1022,0 20 0,0
06.12.2019 17:00:00 12,7 6,3 8 4 ESE 1021,6 20 0,0
06.12.2019 16:00:00 13,1 7,1 5 3 E 1021,4 20 -
06.12.2019 15:00:00 13,1 7,3 9 5 ESE 1021,4 20 0,0
06.12.2019 14:00:00 13,9 7,4 11 6 E 1021,8 20 0,0
06.12.2019 13:00:00 12,9 7,3 13 7 ESE 1022,7 20 -
06.12.2019 12:00:00 12,1 6,6 13 7 ESE 1023,5 20 0,0
06.12.2019 11:00:00 10,6 6,3 13 7 E 1024,1 20 0,0
06.12.2019 10:00:00 8,4 6,0 9 5 ESE 1024,2 20 -
06.12.2019 09:00:00 5,6 4,9 4 2 ESE 1024,4 20 0,0
06.12.2019 08:00:00 5,3 4,7 4 2 SSE 1024,3 20 0,0
06.12.2019 07:00:00 5,5 4,6 8 4 E 1023,7 20 -
06.12.2019 06:00:00 6,0 5,0 9 5 E 1023,0 17 0,0
06.12.2019 05:00:00 7,0 5,5 8 4 ESE 1022,4 20 0,0
06.12.2019 04:00:00 7,9 5,5 8 4 ESE 1022,2 20 -
06.12.2019 03:00:00 8,9 6,0 9 5 E 1021,9 20 0,0
06.12.2019 02:00:00 9,0 6,1 4 2 E 1022,0 20 0,0
06.12.2019 01:00:00 9,2 6,5 5 3 E 1022,1 20 -
06.12.2019 00:00:00 9,6 5,9 11 6 E 1022,2 20 0,0
05.12.2019 23:00:00 9,9 6,2 13 7 E 1021,7 20 0,0
05.12.2019 22:00:00 10,3 6,4 8 4 E 1021,1 20 -
05.12.2019 21:00:00 10,8 6,7 13 7 ENE 1020,3 20 0,0
05.12.2019 20:00:00 11,3 6,6 15 8 E 1019,5 20 0,0
05.12.2019 19:00:00 11,6 6,7 18 10 ENE 1018,7 20 -
05.12.2019 18:00:00 11,9 6,8 16 9 NE 1018,1 20 0,0
05.12.2019 17:00:00 12,4 6,7 18 10 NE 1017,4 20 0,0
05.12.2019 16:00:00 12,6 6,8 21 11 NE 1017,1 20 -
05.12.2019 15:00:00 12,6 6,8 16 9 NE 1016,8 20 0,0
05.12.2019 14:00:00 12,4 6,9 16 9 ENE 1017,1 20 0,0
05.12.2019 13:00:00 12,5 6,7 11 6 ENE 1017,3 20 -
05.12.2019 12:00:00 11,6 6,3 22 12 E 1017,9 20 0,0
05.12.2019 11:00:00 11,2 6,1 22 12 E 1017,5 20 0,0
05.12.2019 10:00:00 10,7 6,1 9 5 E 1017,1 20 -
05.12.2019 09:00:00 8,0 4,9 5 3 ENE 1016,8 20 0,0
05.12.2019 08:00:00 8,0 4,6 9 5 ENE 1016,3 20 0,0
05.12.2019 07:00:00 8,4 4,4 16 9 NE 1015,4 20 -
05.12.2019 06:00:00 8,4 5,1 13 7 NE 1014,6 20 0,0
05.12.2019 05:00:00 7,6 6,5 5 3 ENE 1014,4 18 0,0
05.12.2019 04:00:00 7,5 7,5 2 1 ESE 1014,3 - -
05.12.2019 03:00:00 7,6 7,6 4 2 SSW 1013,8 1,9 0,0
05.12.2019 02:00:00 7,5 7,5 4 2 NNW 1013,3 3,4 0,0
05.12.2019 01:00:00 7,9 7,5 8 4 WNW 1012,8 12 -
05.12.2019 00:00:00 7,8 7,7 4 2 S 1012,4 - 0,0
04.12.2019 23:00:00 7,8 7,5 4 2 N 1011,7 10 0,0
04.12.2019 22:00:00 7,9 7,6 2 1 E 1011,5 14 -
04.12.2019 21:00:00 7,9 7,8 4 2 W 1011,3 5 0,0
04.12.2019 20:00:00 8,2 7,9 2 1 NNW 1010,7 13 0,0
04.12.2019 19:00:00 8,0 8,0 5 3 SSW 1010,2 3,6 -
04.12.2019 18:00:00 7,9 7,6 4 2 W 1009,9 6 1,0
04.12.2019 17:00:00 8,1 7,3 5 3 WNW 1009,4 8 0,4
04.12.2019 16:00:00 8,3 7,5 11 6 W 1009,0 14 -
04.12.2019 15:00:00 8,0 7,2 11 6 WNW 1009,0 10 0,0
04.12.2019 14:00:00 7,8 7,2 11 6 W 1009,2 11 0,6
04.12.2019 13:00:00 7,9 7,0 5 3 W 1010,2 8 -
04.12.2019 12:00:00 7,4 6,5 9 5 W 1010,9 10 0,0
04.12.2019 11:00:00 6,9 6,2 2 1 SSW 1011,7 7 0,6
04.12.2019 10:00:00 6,5 5,8 4 2 WNW 1011,8 11 -
04.12.2019 09:00:00 6,1 5,2 4 2 NNW 1011,7 18 0,0
04.12.2019 08:00:00 6,1 5,2 2 1 W 1011,5 17 0,0
04.12.2019 07:00:00 6,2 4,7 4 2 E 1011,8 20 -
04.12.2019 06:00:00 6,3 4,1 2 1 NNE 1011,9 20 0,0
04.12.2019 05:00:00 6,4 3,9 4 2 NE 1012,5 20 0,0
04.12.2019 04:00:00 6,6 3,7 16 9 ENE 1012,7 20 -
04.12.2019 03:00:00 7,0 4,1 5 3 E 1013,1 20 0,0
04.12.2019 02:00:00 7,2 4,2 4 2 N 1013,9 20 0,0
04.12.2019 01:00:00 7,5 4,8 5 3 NE 1014,5 20 -
04.12.2019 00:00:00 7,8 4,7 11 6 E 1014,8 20 0,0
03.12.2019 23:00:00 7,8 4,9 9 5 ENE 1014,8 20 0,0
03.12.2019 22:00:00 8,5 4,9 9 5 ENE 1014,7 20 -

tt = temperature
td = dewpoint
ff = wind speed
dd = wind direction
ppp = reduced air pressure
vv = visibility
rr = precipitation

Next stations